Wind_Speed
14 14 13 12 11 10 10 9 9 9 9 9 9 9 8 8 9 8 9 9 8 9 10 11 12 12 11 11 11 12 12 14 13 15 17 10 7 11 13 12 10 9 12 14 14 14 17 18 18 17 16 15 16 16 17 17 17 14 8 8 8 9 10 11 13 6 5 5 5 6 4 5 6 6 5 6 9 5 14 19 19 21 14 12 14 21 23 24
14 14 14 13 12 11 10 10 9 9 9 9 9 9 9 9 9 9 9 9 8 8 10 11 12 12 12 12 11 12 13 14 15 20 16 6 7 12 11 11 11 10 13 16 17 18 19 19 18 18 17 16 15 16 16 16 17 12 6 8 9 10 12 13 13 5 3 4 5 5 1 6 4 3 4 5 10 8 8 13 16 17 16 16 18 20 21 24
13 13 14 14 13 12 11 10 10 10 10 10 10 10 10 9 10 10 9 9 8 8 9 10 11 12 13 13 13 13 13 15 17 20 13 6 9 9 8 9 11 12 14 17 17 17 18 17 17 17 18 16 16 16 16 15 15 13 10 8 9 13 15 18 14 5 6 8 6 2 3 6 1 3 5 5 7 5 5 11 13 11 13 14 16 17 17 22
12 13 13 13 13 13 12 11 11 11 11 10 10 11 11 10 10 10 9 9 9 8 8 9 10 12 13 13 14 13 13 15 11 8 4 5 7 6 8 9 11 13 13 15 15 16 16 16 16 17 17 14 16 17 15 16 13 12 12 9 12 15 15 18 12 6 6 4 6 4 2 6 2 3 4 5 3 2 6 13 14 13 15 15 17 16 16 20
12 12 12 13 13 13 13 12 11 11 11 11 11 11 11 11 11 11 10 10 9 9 8 9 10 11 13 14 15 13 10 8 1 2 2 2 4 4 7 9 10 12 13 16 14 15 16 17 17 18 16 12 14 15 14 19 16 10 13 14 17 18 15 14 9 6 9 3 6 5 4 6 2 3 6 7 7 3 7 13 15 17 18 18 17 16 17 19
12 12 12 12 12 13 13 13 12 12 12 12 11 11 11 11 12 12 11 10 10 10 8 9 11 11 13 14 15 12 5 3 1 3 5 2 4 3 5 8 11 13 15 15 14 16 17 19 18 17 15 11 13 13 14 20 18 10 11 16 20 23 17 16 10 3 4 3 6 9 13 8 3 6 9 7 7 6 9 13 17 17 16 17 16 16 19 21
12 12 12 12 12 12 13 13 13 13 12 12 12 12 11 11 12 12 12 11 11 10 9 10 11 11 13 13 14 10 10 13 9 6 6 3 4 2 3 8 11 17 18 15 15 15 17 19 19 18 13 11 13 14 16 19 19 14 12 14 19 22 19 18 13 2 1 7 10 13 15 6 4 8 5 8 5 14 16 17 20 18 16 17 17 17 19 21
12 12 12 12 12 13 13 13 13 13 13 12 12 12 12 11 11 11 12 12 12 11 10 9 10 12 13 13 12 10 16 16 7 5 4 4 5 3 4 7 12 19 19 15 16 14 16 19 19 18 12 11 13 14 17 17 16 15 14 15 16 19 19 18 15 8 4 8 11 13 12 4 8 12 6 10 6 21 23 22 20 19 20 19 17 17 18 20
12 12 12 12 12 12 13 13 13 13 14 13 12 12 12 12 11 11 11 12 12 12 10 10 11 11 13 14 12 10 12 8 6 6 7 8 6 5 5 6 11 19 17 13 15 14 15 16 17 18 13 13 15 15 18 15 11 13 16 18 17 18 17 13 13 14 10 9 10 10 12 8 11 15 9 9 7 16 20 25 24 20 19 17 17 16 17 19
12 12 12 12 12 12 13 13 13 13 13 14 13 13 12 12 12 11 10 11 11 12 11 11 11 11 11 12 11 9 5 3 5 7 9 10 9 7 6 6 10 15 16 13 14 15 15 15 15 17 16 15 15 14 17 14 10 15 19 18 19 20 18 14 12 15 14 13 13 10 11 11 14 14 6 11 12 13 14 22 25 19 18 15 15 16 16 18
13 13 13 13 13 13 13 13 13 13 13 14 14 13 13 12 12 11 11 10 11 11 11 11 11 12 11 10 12 12 5 2 4 4 7 10 11 9 6 9 11 13 15 13 13 15 15 15 13 14 12 12 14 15 16 16 15 20 18 12 15 19 20 18 13 14 15 13 15 13 12 13 15 14 8 16 15 14 13 19 25 18 17 15 13 15 15 16
13 13 13 13 13 13 13 13 13 14 13 13 14 13 13 12 12 11 11 10 10 10 10 11 11 12 11 12 19 16 7 6 6 5 8 10 12 9 7 12 13 13 14 13 13 13 14 15 14 14 12 10 11 11 12 16 19 21 16 10 12 15 17 19 15 15 14 11 15 14 12 11 12 14 14 20 18 16 15 17 23 17 16 14 12 12 13 16
14 14 14 14 14 14 14 14 13 14 13 13 14 14 13 12 11 10 10 10 10 9 9 10 11 11 10 13 21 16 9 11 10 7 9 11 12 10 10 13 13 12 14 14 13 11 12 14 14 16 17 13 9 8 8 11 16 17 13 10 11 10 12 18 17 16 15 11 14 12 8 9 12 16 18 22 21 16 16 17 17 17 17 14 14 13 14 16
14 14 14 14 14 14 14 14 14 14 14 14 14 14 13 12 11 11 11 11 10 10 10 10 11 9 8 16 20 13 10 11 11 10 11 12 13 13 12 12 12 12 13 14 12 10 11 14 15 15 17 15 13 13 11 9 11 11 11 10 8 8 9 14 16 16 15 13 16 12 6 9 12 16 21 22 16 14 14 15 15 16 18 16 17 17 15 17
14 14 14 14 14 14 14 14 14 14 14 14 14 14 14 13 12 12 12 12 11 10 10 10 10 7 10 20 19 11 13 13 14 14 13 14 15 14 14 13 13 13 12 13 12 11 10 12 14 13 15 16 15 14 9 7 8 7 10 9 8 9 10 14 17 19 17 14 19 16 8 8 11 16 24 25 19 18 17 14 15 16 19 18 15 16 16 17
14 14 14 15 15 15 15 15 14 14 14 14 14 15 15 14 13 13 13 13 12 11 10 8 6 7 9 13 10 8 14 17 17 15 15 16 16 15 14 13 12 12 12 12 12 11 10 11 13 14 14 13 11 9 7 7 8 8 9 8 10 11 10 12 15 20 20 15 18 17 9 7 11 14 19 27 26 22 20 16 17 17 19 22 18 16 18 18
15 15 15 15 15 15 15 15 14 14 14 14 15 15 15 15 15 14 15 15 13 11 10 6 3 8 12 10 7 10 16 17 15 15 18 16 16 15 13 13 12 12 12 11 12 12 12 12 11 11 12 10 8 8 8 8 7 7 8 8 11 14 11 11 13 17 21 17 15 16 11 11 13 12 17 23 31 22 19 18 18 18 15 22 19 17 18 19
17 16 16 15 15 15 15 15 15 14 14 14 15 15 15 17 18 18 18 17 12 8 9 8 5 7 11 14 14 12 13 15 12 15 18 16 17 15 11 12 11 12 12 11 13 14 12 12 10 8 8 9 8 9 8 9 10 9 9 9 10 14 13 13 14 13 20 18 15 14 14 15 17 13 13 8 25 21 19 19 18 17 14 22 19 17 17 19
18 17 16 16 15 15 15 16 15 14 14 13 14 15 16 17 18 15 12 10 7 4 6 9 13 7 7 9 14 8 3 9 11 14 18 17 16 14 11 12 12 13 13 9 11 15 12 9 9 8 7 9 10 11 11 14 16 10 8 9 11 11 12 14 15 12 20 17 14 14 14 14 16 15 6 9 14 15 16 16 16 17 16 21 18 15 16 19
18 17 17 16 15 16 16 16 15 15 14 13 13 13 13 12 10 3 2 9 13 13 14 12 18 17 15 11 12 7 5 7 9 13 17 17 15 14 13 13 13 13 11 9 9 12 12 7 8 9 10 12 13 14 15 17 18 13 13 13 13 12 11 14 15 12 18 13 13 14 13 14 13 14 12 14 16 14 12 12 12 15 18 19 18 17 17 19
18 17 17 16 16 16 16 16 16 15 14 13 12 11 10 10 7 6 5 10 18 21 24 22 19 21 21 17 13 9 10 10 11 14 15 17 16 14 14 15 13 10 11 13 10 10 11 8 9 12 13 14 14 14 15 17 16 13 12 14 10 11 11 13 15 12 15 9 10 13 12 13 13 13 13 15 17 14 12 11 11 15 19 18 18 17 18 17
17 17 17 17 16 16 16 16 16 15 14 13 13 12 12 11 9 11 14 14 20 23 25 26 25 24 23 21 17 12 11 12 13 16 17 18 17 14 13 15 12 9 11 13 9 8 9 9 12 14 13 14 13 10 12 14 13 10 9 11 8 7 10 12 13 9 10 5 7 11 11 11 13 13 11 12 13 14 15 14 15 17 17 17 17 17 18 11
17 17 17 17 16 16 17 16 15 15 14 13 14 15 12 12 12 14 15 14 19 24 23 23 25 26 24 21 18 15 14 12 13 17 19 19 19 18 14 12 12 11 11 12 11 8 7 11 14 15 14 14 10 5 7 8 7 8 8 8 7 7 10 7 5 6 9 4 5 7 8 8 11 10 8 15 13 14 16 17 17 17 16 17 16 12 9 17
17 17 16 17 16 16 17 15 12 11 12 11 12 11 10 12 14 13 14 13 14 20 23 23 23 23 23 21 17 18 18 15 14 17 22 20 19 18 14 12 12 11 11 14 15 11 10 11 13 16 16 13 8 6 7 6 5 9 10 10 9 10 12 7 6 7 8 7 6 6 7 8 10 9 10 13 8 11 13 14 16 17 17 18 10 10 21 29
18 17 16 17 16 16 16 13 8 8 10 11 10 10 8 10 10 9 11 10 9 14 17 19 20 19 19 17 16 18 18 17 19 17 23 23 20 15 12 13 11 10 13 16 15 12 12 9 7 14 13 8 8 9 10 8 6 9 11 13 15 15 15 10 7 7 4 5 6 7 8 7 8 12 13 9 7 8 12 11 15 17 17 18 11 27 29 24
18 18 17 17 16 16 14 10 5 5 10 11 10 8 6 6 7 8 7 6 6 8 7 11 14 12 13 16 17 16 13 14 19 19 22 24 21 16 12 10 10 10 13 14 10 7 10 8 6 9 6 6 9 9 10 11 7 8 9 13 17 19 18 14 6 5 5 5 5 8 9 6 6 13 14 9 10 12 11 10 13 15 16 15 16 30 25 17
19 19 18 17 17 17 15 11 8 10 12 7 4 4 5 5 7 7 6 5 5 6 7 8 8 8 10 14 17 14 8 10 17 20 21 22 21 19 13 9 9 10 10 8 7 6 8 8 8 9 7 7 9 8 10 12 9 7 10 13 17 18 16 14 11 7 6 5 5 8 9 7 7 10 11 11 13 13 12 10 10 13 11 12 26 31 22 12
20 20 20 18 17 17 17 16 13 14 14 8 7 6 6 7 7 6 4 4 3 4 7 6 5 5 8 13 18 16 11 9 14 17 22 22 20 18 14 12 10 11 11 8 6 7 8 9 8 8 10 8 9 10 11 12 10 10 13 13 11 14 14 12 9 7 5 5 6 7 9 7 6 6 9 13 14 13 13 12 10 12 10 31 33 26 18 11
20 21 21 19 17 15 15 17 15 13 14 11 10 9 8 8 7 4 4 4 3 1 5 6 7 7 10 13 17 20 17 10 10 15 22 20 19 17 12 13 13 11 12 10 8 6 8 10 11 10 8 8 10 12 13 13 10 11 13 12 9 10 12 10 9 6 4 5 7 8 7 6 6 6 8 11 12 11 12 13 11 11 19 36 28 21 18 17
20 20 20 20 17 11 11 15 12 8 9 9 10 10 9 7 5 5 5 3 3 4 6 7 7 10 13 12 13 18 18 12 9 16 21 19 19 19 14 14 14 11 9 11 11 10 7 7 8 9 9 10 12 11 13 14 13 12 11 9 10 10 8 9 8 5 3 4 8 10 9 6 7 6 7 7 9 9 7 8 11 11 19 31 27 23 19 18
19 20 20 20 16 10 11 12 6 5 6 8 11 11 7 5 5 6 6 4 5 6 8 7 9 11 13 13 11 14 16 13 10 15 15 14 16 16 13 11 10 7 8 8 10 13 11 6 4 6 10 13 12 9 10 11 12 10 7 7 8 7 6 7 6 5 5 5 8 12 13 11 7 5 3 2 1 6 5 7 7 9 19 25 23 22 21 20
18 19 20 18 16 13 13 11 4 2 4 8 10 9 6 5 6 6 6 5 4 4 7 7 9 11 13 15 11 13 15 12 11 13 12 11 10 12 11 8 6 6 7 7 8 10 11 9 7 8 13 15 10 6 6 7 8 9 7 7 7 5 5 6 6 6 6 6 9 12 11 9 5 1 5 8 6 2 8 9 8 9 16 21 20 18 20 21
17 19 18 17 16 13 12 11 9 10 10 7 6 7 7 6 7 7 8 7 3 2 1 4 6 9 11 13 11 12 14 12 12 13 13 12 10 11 14 13 11 9 6 7 7 8 8 9 11 10 10 13 11 7 7 7 7 9 7 7 6 5 5 6 6 6 6 7 10 9 6 3 2 4 7 8 6 7 10 10 7 10 12 18 20 17 18 19
17 18 16 14 13 10 9 8 8 12 12 8 6 7 8 8 7 8 9 10 8 5 4 3 5 9 10 10 10 11 12 12 14 13 12 13 10 10 13 15 16 12 7 6 6 7 8 8 10 11 8 11 13 11 9 7 8 10 8 8 7 5 4 4 5 5 4 5 6 7 4 2 3 2 5 9 9 11 16 17 13 11 11 15 18 17 16 15
16 15 13 9 7 5 4 3 3 7 9 8 7 7 9 8 7 8 9 10 11 11 10 7 6 9 10 9 11 12 11 10 13 14 12 12 11 9 11 12 16 14 8 6 5 6 10 8 9 14 12 12 14 14 13 10 7 7 8 9 7 4 2 2 3 2 1 3 4 3 2 2 4 2 4 9 9 11 15 18 18 16 14 15 16 14 15 15
13 10 10 7 4 3 2 2 3 4 7 8 7 7 8 7 7 8 7 8 10 11 12 10 9 9 8 7 9 12 12 10 11 12 10 12 13 13 12 11 14 16 11 7 5 4 8 7 7 13 15 14 14 13 13 11 4 2 6 8 7 7 6 2 2 1 1 3 3 2 1 2 5 4 4 8 9 11 13 14 16 15 14 13 12 12 12 11
9 6 8 7 3 3 3 4 5 5 7 9 8 7 8 9 11 11 10 12 13 12 10 9 7 9 8 8 8 11 12 11 11 9 7 11 11 11 14 13 14 18 16 11 6 4 6 6 5 8 13 15 15 13 13 13 7 3 4 5 4 5 6 3 2 1 2 5 5 5 5 4 5 4 7 10 9 11 10 9 11 12 12 11 10 12 10 6
8 5 8 7 5 4 4 6 7 7 8 8 8 9 9 10 13 14 15 16 16 12 9 7 7 8 8 8 8 10 11 8 7 7 6 7 5 4 7 9 10 15 19 16 7 3 5 5 6 10 11 12 13 11 11 13 13 9 4 3 4 3 4 4 3 2 3 5 5 6 9 7 4 3 9 14 11 12 11 8 7 9 11 10 10 13 12 11
7 5 6 5 5 6 7 8 10 10 9 7 7 8 9 12 16 19 19 17 15 11 8 9 9 7 8 9 8 9 11 7 3 3 6 5 2 7 9 5 6 10 14 16 9 3 3 3 4 8 10 7 9 7 7 8 11 10 5 3 4 3 3 3 2 2 5 5 4 7 8 3 3 3 7 14 15 14 13 9 7 8 9 9 10 13 14 14
7 6 4 5 5 9 7 9 11 10 8 8 8 8 9 12 15 20 23 18 13 9 7 9 10 9 10 11 11 8 7 6 2 1 5 3 1 4 7 7 5 9 13 13 11 7 5 2 3 5 8 7 5 6 7 7 7 7 6 7 6 4 3 3 2 3 5 5 3 5 4 3 7 6 3 12 16 15 15 13 11 11 12 10 11 14 15 17
9 7 1 3 4 6 3 9 9 8 7 7 9 10 11 12 12 16 21 19 12 9 8 11 11 10 10 10 10 7 5 7 5 2 3 3 3 3 1 6 7 4 10 13 10 6 4 5 4 5 5 6 6 5 6 9 9 8 7 7 7 5 4 4 4 5 5 5 4 3 1 2 3 4 5 11 13 13 15 14 13 17 20 19 19 20 20 20
9 4 1 0 4 2 4 6 6 7 7 7 10 12 12 12 12 15 15 12 10 9 10 12 12 11 10 10 9 7 8 6 5 4 2 3 4 7 4 5 10 9 6 10 5 1 1 4 5 6 4 6 9 8 9 11 12 11 8 5 6 7 6 4 2 2 3 4 3 2 1 2 3 4 7 8 9 11 14 14 13 17 20 20 20 20 19 19
7 1 3 1 1 2 5 6 5 6 7 9 13 15 14 11 10 12 10 7 8 9 8 10 12 12 9 7 7 8 9 6 3 5 6 6 7 8 6 5 9 10 5 8 3 3 1 2 4 5 4 5 11 12 11 12 12 9 6 4 6 7 5 2 1 0 2 4 2 1 2 2 4 4 6 10 11 12 11 13 15 15 16 18 19 17 17 18
10 5 1 2 1 3 6 4 3 4 6 10 13 14 15 12 9 9 8 7 8 9 8 10 13 12 9 7 8 10 9 6 5 3 4 4 4 4 4 6 5 5 4 6 5 1 1 2 2 4 4 2 6 8 7 7 9 6 5 10 11 8 4 1 2 1 2 5 4 1 1 1 3 4 7 11 13 11 7 5 11 12 12 16 18 17 18 18
12 6 3 1 3 3 6 3 3 5 6 8 11 11 11 10 9 11 10 8 9 9 8 9 12 10 8 9 11 12 10 7 7 2 5 3 3 2 5 7 5 3 5 9 7 2 2 1 3 4 5 3 2 4 4 2 4 5 9 14 17 14 9 3 3 1 1 4 6 1 1 3 5 8 11 12 12 10 6 5 4 6 9 13 16 17 17 16
9 4 2 3 5 5 8 6 5 6 5 5 7 8 8 7 8 11 11 8 8 9 8 8 10 9 8 10 10 10 11 10 9 5 4 4 1 2 6 9 10 12 9 8 6 1 1 2 5 6 7 5 2 3 1 1 2 7 13 16 18 20 15 6 3 2 3 2 3 4 1 6 7 10 11 10 9 7 5 2 3 2 2 7 11 13 14 15
7 3 5 5 4 5 7 7 9 7 4 4 4 6 8 8 6 5 5 6 7 7 7 7 7 8 7 8 8 8 10 11 11 10 7 6 3 3 7 9 9 14 14 9 6 2 3 5 6 6 9 9 4 2 2 2 1 6 12 14 17 21 18 9 4 2 0 3 1 2 5 8 8 9 9 10 8 5 5 7 8 10 10 10 9 10 12 14
5 4 6 5 4 5 5 8 12 9 5 5 3 5 10 11 7 3 2 5 6 4 5 7 7 9 10 9 9 8 8 10 10 8 3 2 3 2 5 2 0 7 11 10 9 6 4 5 5 7 8 6 2 2 3 3 2 2 7 11 13 16 17 14 11 11 6 1 3 7 12 12 8 8 10 9 8 7 8 10 11 13 11 9 9 9 9 12
7 5 6 5 4 6 5 5 10 9 7 7 3 5 10 9 5 2 2 3 4 3 4 6 8 10 10 9 7 4 3 5 5 6 7 7 5 1 1 3 4 4 6 7 6 5 4 2 1 4 7 5 4 3 1 3 5 4 1 5 9 12 14 14 14 15 11 8 10 12 15 12 7 9 12 12 13 14 15 14 14 15 12 7 7 7 6 8
9 5 6 6 4 6 4 4 6 6 6 8 5 6 9 8 6 7 6 5 3 3 5 6 7 8 6 8 8 6 7 6 5 5 6 4 3 2 1 1 2 5 5 4 1 2 3 2 1 2 5 5 5 5 3 1 3 4 4 3 3 6 10 11 12 12 9 8 11 13 14 11 7 10 15 18 20 22 22 20 20 21 20 16 13 10 7 8
9 5 5 7 3 5 5 6 6 5 6 7 6 7 9 9 10 9 6 9 9 6 7 8 7 6 5 8 10 9 9 9 7 6 6 6 3 1 3 3 2 2 5 2 3 6 6 2 3 2 5 5 6 7 6 3 1 3 5 5 4 5 6 7 8 8 7 4 5 6 8 8 7 11 16 20 22 22 21 20 20 21 23 23 22 19 17 16
10 7 7 9 3 4 5 5 6 5 5 4 3 6 7 9 11 9 5 7 11 12 12 11 8 5 4 7 10 10 10 10 9 8 7 7 7 5 4 4 5 4 1 3 5 4 4 2 3 3 5 4 5 6 6 5 3 3 4 4 6 8 7 6 7 9 9 4 3 3 5 7 9 11 12 14 16 17 18 18 18 20 23 25 22 20 21 23
Wind_Direction
9 6 1 354 348 342 335 328 318 308 300 295 294 299 302 303 309 317 328 335 347 352 352 356 355 348 339 328 314 306 300 290 287 276 271 273 251 242 244 245 244 229 219 213 193 193 201 207 215 216 221 227 228 232 234 230 228 232 229 240 249 250 251 247 255 264 269 259 98 54 32 267 257 145 195 244 245 223 90 76 75 75 72 88 121 153 155 152
7 7 5 0 354 347 343 335 329 321 311 303 293 293 295 297 300 304 315 324 338 348 351 356 354 354 348 338 324 315 305 298 293 275 265 255 242 246 243 239 236 221 215 204 189 197 202 205 212 211 216 224 224 224 232 227 222 230 232 236 239 245 252 248 261 299 1 349 51 47 316 243 273 92 138 216 234 210 133 99 87 83 86 94 117 140 147 153
2 4 4 3 0 352 347 340 335 329 322 313 300 292 288 290 293 295 303 312 326 336 344 348 351 354 349 345 335 322 314 313 297 280 272 243 234 233 230 235 225 218 217 201 192 202 206 207 209 209 215 223 224 218 223 224 216 223 233 241 237 243 255 259 274 329 29 17 12 29 197 221 255 139 169 217 226 199 148 116 108 104 111 116 126 142 151 158
356 357 359 1 1 356 350 343 337 332 326 317 308 297 287 284 286 290 293 302 313 320 333 339 345 350 349 347 337 329 328 319 292 273 288 225 220 214 218 227 215 214 211 192 195 212 214 215 211 211 217 225 228 222 222 223 216 215 226 242 245 244 248 258 282 298 277 311 304 356 118 239 249 201 207 186 205 29 106 125 136 141 140 144 142 156 166 165
350 351 352 353 355 356 354 347 340 333 328 320 312 304 295 287 283 285 286 292 299 307 322 328 336 343 344 344 334 333 332 322 194 148 354 187 185 208 219 217 208 204 191 182 204 225 219 220 217 214 220 230 231 226 224 224 222 220 228 237 247 254 253 265 305 301 269 251 250 281 279 273 89 252 265 178 188 220 153 137 144 149 149 156 157 168 171 172
345 345 345 346 347 349 350 349 346 338 332 326 318 309 303 295 287 283 279 282 288 295 309 317 327 334 337 339 331 331 301 274 55 218 258 206 169 210 214 205 197 185 177 185 218 232 221 221 221 218 220 231 238 232 227 222 222 231 239 237 244 253 262 280 299 301 282 290 257 257 265 296 35 252 258 215 197 171 165 136 134 148 154 158 165 175 175 179
339 340 338 340 340 341 342 344 346 342 337 330 325 317 308 302 294 286 280 279 280 286 297 308 317 322 329 332 327 314 253 266 289 240 228 215 183 199 197 194 188 175 175 197 227 230 219 220 221 223 222 227 240 241 236 228 223 231 242 241 244 250 255 266 277 304 192 253 259 259 260 282 290 255 238 239 202 122 132 128 131 148 160 162 165 175 179 184
334 334 333 335 334 336 336 336 340 342 340 333 327 324 316 310 301 292 284 279 278 281 288 299 309 316 322 328 326 295 259 262 250 191 229 239 198 204 189 184 185 177 182 208 228 229 221 222 225 227 228 229 238 243 243 238 227 230 241 246 251 252 250 249 252 253 229 237 247 257 264 259 252 257 245 242 170 120 134 141 146 153 158 163 163 174 182 188
329 329 329 331 330 330 330 330 333 335 339 335 329 325 321 316 307 299 288 280 278 278 284 293 300 309 316 322 321 291 270 252 205 208 246 246 218 212 195 182 186 183 192 218 228 229 221 223 228 230 237 239 239 242 244 243 230 230 239 244 249 253 258 253 244 245 242 244 238 236 252 247 246 257 261 253 184 136 150 151 153 156 157 163 162 174 183 190
326 325 325 325 325 325 324 325 327 329 334 334 331 326 323 318 311 305 294 285 279 276 281 286 292 303 312 317 305 280 271 248 254 258 246 238 218 206 195 187 192 190 203 223 228 226 224 226 228 231 242 250 249 249 247 247 246 242 242 241 243 251 258 254 244 245 244 241 238 231 241 235 239 248 236 245 219 164 167 153 148 155 152 159 165 173 184 192
324 324 322 321 321 320 320 320 322 324 326 330 330 326 323 320 313 308 300 292 282 277 277 281 289 295 300 301 276 260 252 242 262 248 233 231 214 208 198 189 197 201 209 224 227 226 230 232 235 237 238 243 253 259 257 255 254 251 252 251 246 250 252 246 234 235 239 233 228 230 244 233 233 239 209 238 224 162 181 159 144 154 152 156 166 169 186 196
325 323 321 320 319 316 316 315 316 319 321 324 327 325 323 321 317 310 304 298 288 279 275 279 283 287 300 287 258 248 248 257 260 230 210 208 206 210 202 193 200 208 216 229 229 227 236 240 248 252 242 239 247 257 265 261 256 254 256 256 251 251 249 244 230 227 233 225 219 220 242 235 225 234 215 234 229 173 193 177 150 158 156 159 168 172 190 195
327 325 323 321 318 315 313 312 312 313 316 318 320 321 320 319 318 312 308 305 297 288 280 278 280 287 296 273 256 251 260 255 246 228 205 200 202 205 206 205 208 218 226 236 238 231 239 245 248 253 255 261 258 254 273 268 256 254 251 250 254 256 247 239 228 227 232 227 216 203 227 237 225 232 219 231 232 184 193 199 171 164 157 159 169 183 200 194
328 327 324 321 318 316 312 310 309 309 312 314 315 316 316 314 310 308 308 305 300 294 287 280 283 287 265 267 267 248 241 247 233 225 214 205 205 208 210 211 218 226 230 239 250 247 241 242 244 254 258 261 264 264 273 266 249 245 242 241 244 251 250 236 222 218 227 223 210 203 224 233 225 224 217 226 221 178 195 203 188 179 164 164 170 182 201 196
329 327 324 322 319 316 313 310 308 307 308 309 310 311 312 311 303 300 301 299 298 292 287 281 282 280 256 275 285 248 227 238 232 226 215 207 209 211 208 213 224 227 232 238 246 253 249 239 236 247 252 249 259 268 271 255 241 234 235 239 232 237 249 242 224 208 215 215 203 210 230 230 239 227 213 216 205 188 204 199 199 197 164 166 182 185 197 201
327 326 324 321 318 316 314 311 308 306 305 304 305 307 309 307 299 293 290 289 290 285 282 281 292 297 268 276 292 247 225 225 228 225 213 209 210 213 207 212 226 224 231 235 235 244 245 238 231 237 244 242 244 248 254 246 232 222 224 238 236 233 239 246 234 204 204 212 202 208 226 231 238 239 228 217 203 194 202 202 207 205 166 166 186 192 199 207
326 325 323 321 319 317 314 311 309 306 303 300 300 303 306 304 296 286 282 282 285 286 277 258 280 282 258 259 276 247 224 220 226 217 209 208 208 216 210 206 220 220 223 226 227 234 231 229 228 232 238 240 238 229 236 241 231 219 218 233 240 240 234 236 241 203 192 208 205 196 215 248 234 256 281 224 192 185 199 205 203 206 176 161 180 194 196 207
326 324 323 322 319 316 314 311 309 307 303 300 298 302 304 301 293 283 279 280 282 288 278 245 225 264 251 245 257 257 231 215 212 204 202 203 207 217 210 205 216 212 214 219 220 223 217 216 220 226 227 230 240 227 224 235 233 219 212 220 231 245 240 234 245 200 181 201 209 192 200 243 244 254 304 197 172 178 194 206 202 196 169 155 180 199 194 207
325 324 324 323 320 318 314 310 309 307 303 298 295 299 302 297 292 287 280 271 248 232 268 215 190 233 299 259 244 257 232 185 189 199 197 197 205 215 210 210 215 208 212 212 205 210 204 204 217 227 223 219 227 227 227 231 235 244 255 243 221 234 240 235 247 197 174 190 206 209 203 221 244 242 237 135 164 199 200 211 199 183 179 169 184 204 203 214
323 323 323 322 322 319 315 311 309 307 304 299 298 302 303 297 293 294 210 226 232 243 268 240 203 234 279 272 240 220 173 173 195 204 197 192 199 211 209 210 213 208 216 215 195 200 204 210 218 220 225 223 221 229 240 240 246 275 299 276 227 223 240 232 241 199 173 190 202 211 217 212 227 237 217 170 184 219 215 217 200 187 203 196 194 204 210 221
320 321 321 321 321 320 317 312 307 305 302 297 297 296 286 297 321 339 313 262 256 255 259 256 239 244 258 258 252 219 190 200 212 209 200 192 197 210 203 203 211 203 215 222 202 194 209 222 226 224 229 234 227 223 240 253 262 278 294 288 244 216 236 230 236 206 170 190 200 196 222 227 221 229 224 187 182 206 211 213 218 207 210 210 202 202 212 216
317 316 317 319 319 321 318 313 309 303 299 292 289 279 265 286 319 324 318 296 279 269 256 254 252 250 251 254 259 244 215 207 207 208 200 189 199 209 190 192 214 206 208 219 206 191 211 230 234 232 231 237 240 227 234 248 262 276 273 280 275 230 231 226 230 209 158 183 206 190 215 235 235 229 224 214 191 187 195 209 231 223 212 213 208 210 215 183
314 312 314 316 317 320 319 316 310 298 294 288 279 273 265 282 305 311 310 294 286 282 264 249 244 242 241 241 240 235 231 221 210 205 194 187 203 210 193 192 214 212 204 212 213 198 207 226 228 234 234 230 238 252 262 259 252 266 261 256 275 261 241 219 187 146 127 165 228 223 230 236 242 234 232 242 210 171 192 212 230 226 207 214 224 223 182 100
312 310 311 314 315 319 320 319 314 307 310 297 281 286 284 284 296 310 306 288 282 281 265 245 238 237 232 229 223 217 223 229 228 207 185 188 206 211 208 203 210 220 210 208 217 219 227 226 213 222 230 222 222 235 249 267 252 247 251 251 262 264 254 230 162 148 143 169 200 237 254 244 234 226 233 239 191 162 203 215 227 223 204 215 218 101 92 89
310 309 310 313 314 319 322 322 329 335 322 296 288 315 309 280 287 312 308 287 270 270 259 235 231 234 222 215 209 206 213 222 233 215 182 190 208 206 212 213 210 222 214 210 216 226 239 242 219 220 215 195 213 230 227 237 258 249 239 243 258 268 271 259 180 162 191 209 194 208 241 248 226 228 233 214 159 192 217 215 230 223 201 208 154 98 95 98
307 306 308 311 313 319 320 319 318 303 295 280 276 303 307 281 295 313 299 280 272 260 224 192 204 212 202 200 193 197 214 217 227 220 182 188 210 210 213 212 210 225 221 215 214 228 244 233 225 228 192 175 219 232 228 224 236 252 233 226 244 261 273 276 244 189 213 231 208 204 227 247 225 227 227 196 183 206 211 214 231 221 205 198 126 101 100 110
305 303 305 307 311 318 316 311 296 271 278 304 321 306 316 309 300 303 283 269 268 225 176 158 174 180 190 193 179 184 218 200 209 219 190 184 207 216 225 214 202 226 235 233 210 211 237 210 200 228 216 209 230 231 224 222 225 247 242 222 223 238 255 265 267 254 226 225 229 215 222 241 237 224 212 201 202 200 202 213 226 225 203 124 101 100 98 107
305 302 302 302 305 313 311 306 299 270 265 308 342 312 314 314 292 286 273 269 275 177 164 162 160 167 189 185 179 199 228 187 187 211 193 185 201 209 226 233 222 221 222 240 235 199 211 202 187 216 226 224 233 235 224 219 225 238 252 253 228 222 234 242 254 258 231 229 240 228 225 238 248 221 201 212 212 197 199 198 214 229 123 90 92 104 114 142
307 304 303 302 301 309 308 302 300 275 262 286 316 303 300 304 287 267 250 259 296 223 167 165 160 178 194 182 187 211 229 211 186 189 181 184 203 210 226 238 241 241 217 222 247 224 211 216 211 207 218 235 230 229 225 217 227 237 248 272 268 234 227 229 241 242 223 237 242 235 232 248 257 214 196 218 209 197 206 187 196 214 121 106 113 124 144 171
307 307 305 303 303 309 304 301 307 304 284 283 292 289 285 284 265 236 224 222 268 226 158 150 173 189 194 189 194 210 222 224 194 175 175 181 200 215 231 230 235 256 233 213 232 243 229 221 237 223 211 233 233 228 229 218 219 232 234 244 252 244 227 222 235 237 224 232 239 240 225 233 262 217 190 223 201 187 205 172 183 194 129 123 139 145 159 172
308 308 304 303 305 297 280 287 317 4 323 274 265 268 266 257 238 229 224 237 280 229 164 166 195 190 192 200 202 202 212 223 192 171 178 185 192 208 226 225 223 248 245 219 221 238 236 211 235 244 227 233 234 234 242 226 212 217 225 232 234 229 223 228 225 222 236 228 233 241 218 204 241 233 169 7 196 173 138 114 160 161 122 126 143 149 158 161
309 306 302 300 298 285 270 266 226 189 272 263 259 255 238 229 226 228 232 249 275 211 180 206 206 189 195 206 209 199 205 217 194 179 188 190 189 199 211 214 201 211 232 223 209 222 233 223 208 221 234 238 237 226 231 233 221 212 209 224 233 218 210 231 223 214 238 233 227 241 230 212 229 187 92 57 34 123 135 134 168 161 133 136 144 148 157 159
311 305 303 298 291 283 273 266 239 234 256 273 271 247 228 230 225 225 232 241 265 106 153 262 223 200 202 208 214 202 202 212 196 189 196 195 197 201 207 214 204 204 226 220 212 212 219 230 219 211 220 227 234 234 209 202 217 224 222 220 223 219 212 224 228 222 232 231 224 227 229 215 175 114 111 105 68 59 87 106 155 169 151 143 142 148 158 158
313 307 306 299 291 282 264 257 245 244 252 259 258 232 222 235 236 232 231 235 253 262 258 268 233 226 221 218 223 204 204 219 202 194 200 197 204 204 204 215 214 215 232 226 225 222 217 224 215 209 205 199 213 236 239 218 206 213 227 237 230 222 227 228 230 240 244 247 239 222 212 157 160 159 111 112 94 75 76 77 89 107 109 117 125 134 143 146
318 315 316 309 300 295 264 229 230 239 235 231 237 224 220 231 232 238 242 238 249 258 251 240 230 238 233 226 231 215 210 222 204 200 209 204 209 211 203 212 215 216 220 220 228 228 232 235 202 202 208 197 201 226 249 250 226 209 215 232 237 210 203 239 233 250 311 306 290 235 242 77 138 173 92 101 95 80 77 79 84 86 88 97 105 118 136 147
325 319 320 323 324 323 307 222 225 229 219 220 226 224 223 231 231 236 248 246 249 257 255 243 226 234 237 226 235 226 216 224 215 208 214 214 215 214 209 206 210 215 218 215 213 217 237 245 203 196 203 207 206 211 233 242 233 236 224 226 230 205 196 207 219 203 137 258 253 173 106 80 137 160 142 136 117 84 66 68 79 82 90 93 94 112 135 152
326 296 289 290 245 225 227 220 225 222 223 227 231 234 232 237 241 246 259 266 265 262 262 261 236 228 235 228 232 229 213 212 218 218 221 223 221 221 222 215 204 210 217 224 229 213 232 271 294 236 212 206 209 210 224 230 215 207 235 257 281 229 216 209 182 180 256 251 233 179 178 185 188 192 164 154 127 92 78 78 87 90 97 96 101 119 130 149
323 289 271 256 199 200 223 219 218 219 226 231 237 246 248 247 246 250 258 268 275 273 268 276 257 233 239 239 234 233 226 215 203 210 229 228 237 288 261 232 217 217 213 216 234 216 216 259 293 273 242 201 198 217 226 225 223 224 230 302 320 264 235 225 191 180 223 247 248 209 202 200 211 202 155 152 137 108 101 103 107 108 114 120 132 137 137 140
322 290 263 221 199 245 249 216 210 218 225 229 235 239 248 257 260 263 266 266 270 270 258 262 263 247 246 251 246 233 230 231 205 231 248 224 233 326 330 308 271 261 228 209 210 196 192 234 242 257 259 208 185 221 233 221 228 232 225 231 234 227 245 247 238 244 225 227 242 228 214 181 31 326 182 156 140 130 129 128 125 124 126 129 135 134 130 127
314 282 246 181 233 280 259 204 203 218 224 229 241 242 244 251 255 262 267 267 271 274 261 263 264 255 252 256 259 252 228 214 169 282 265 225 182 289 322 327 305 298 282 242 211 193 170 181 232 242 250 235 204 216 228 231 234 230 225 224 218 219 242 232 210 249 254 245 248 245 229 80 35 341 207 143 134 138 142 142 144 144 144 148 149 146 142 142
306 286 230 165 278 302 221 190 202 223 230 231 240 248 255 262 263 260 256 254 261 268 267 276 279 274 276 269 258 262 259 225 175 83 303 304 324 280 267 317 311 327 298 264 219 193 172 162 215 243 235 242 249 240 246 252 249 241 231 228 228 222 222 228 222 229 256 263 258 255 220 76 34 8 74 117 131 137 139 142 143 145 152 161 164 163 164 161
290 280 81 292 314 334 180 206 228 235 239 245 248 250 252 260 269 269 263 261 271 270 261 269 273 272 282 282 267 270 279 252 167 136 218 212 274 274 232 290 321 7 336 265 230 61 13 159 201 236 235 257 276 300 317 302 279 263 252 242 244 241 232 232 233 240 265 269 274 257 182 101 69 65 84 105 121 124 133 141 137 139 147 151 149 149 153 151
291 319 95 129 323 215 224 253 261 248 258 266 265 263 261 259 258 266 277 286 282 273 263 263 260 256 265 279 279 276 276 270 202 187 213 200 211 241 239 278 328 1 347 270 278 42 9 178 196 225 227 279 305 311 308 312 314 294 275 278 264 256 260 251 136 95 279 274 300 293 234 98 75 88 103 99 98 104 122 138 141 141 141 140 138 135 138 141
314 329 136 142 82 231 251 290 298 282 291 284 276 274 278 285 283 274 278 272 261 260 258 259 253 245 252 260 255 259 263 268 268 211 195 239 223 195 225 254 290 354 345 294 302 342 262 218 211 239 222 239 319 306 278 313 342 336 321 315 298 272 248 151 98 112 266 273 262 219 158 76 84 99 94 84 83 82 65 96 133 140 139 140 140 136 137 140
307 297 218 158 32 286 278 323 319 300 315 303 290 283 280 288 287 278 278 272 267 272 268 266 268 262 264 262 250 255 261 260 272 233 144 213 275 159 192 212 199 206 296 307 303 249 211 189 192 238 245 225 240 256 254 347 3 343 342 339 329 307 269 211 105 132 231 296 293 286 141 166 126 92 82 71 70 81 57 17 71 131 149 147 138 134 138 138
297 313 343 352 18 330 299 327 338 318 334 325 299 290 282 276 272 275 284 281 266 275 283 285 293 295 290 281 267 262 263 254 260 263 159 148 292 237 204 193 183 190 218 280 304 300 250 222 200 220 244 256 237 175 191 346 8 0 356 355 354 341 315 268 193 189 157 101 330 325 168 150 112 83 86 86 77 91 109 66 17 9 96 112 110 115 122 122
284 355 11 341 5 346 313 339 348 334 357 353 309 309 309 292 266 253 279 286 263 265 284 282 278 280 278 281 277 270 272 265 257 254 222 172 160 216 215 208 186 167 171 204 228 222 273 239 213 231 248 259 268 156 158 258 336 25 12 1 360 360 350 328 297 315 156 165 240 19 103 111 87 65 79 97 97 86 75 69 50 33 40 56 69 86 101 105
320 31 31 344 337 353 352 355 340 333 18 10 333 355 338 310 285 265 283 297 279 262 284 287 279 269 261 262 262 258 274 274 267 276 295 83 92 209 220 260 295 149 166 206 211 191 241 245 210 225 237 238 230 141 161 208 220 39 32 14 1 9 16 11 5 3 1 145 141 112 110 109 104 86 75 80 93 93 85 88 82 72 74 88 86 78 88 99
11 25 16 349 5 26 29 4 332 330 14 11 5 27 348 316 299 333 11 350 324 330 324 303 289 277 273 287 291 279 312 300 296 335 1 32 43 354 296 4 326 233 206 223 214 184 214 244 215 231 227 200 164 135 129 201 209 214 134 36 7 10 28 32 27 19 25 80 109 114 108 101 104 101 86 78 78 74 74 77 70 62 65 79 76 63 68 89
9 14 359 340 43 52 25 26 359 344 18 12 6 19 351 337 3 13 27 49 39 355 342 323 306 302 324 1 10 26 19 359 10 9 344 352 34 27 7 26 289 287 274 231 201 345 290 242 55 280 234 198 181 164 135 163 206 207 183 138 55 28 32 35 38 30 26 69 97 108 108 104 108 95 78 69 64 59 57 55 50 51 57 64 64 54 58 84
360 9 351 326 18 55 15 32 37 12 26 26 2 357 354 353 359 353 4 30 35 22 1 351 336 326 359 26 23 19 4 346 350 357 338 334 342 236 238 234 210 285 300 298 45 7 316 237 153 242 246 210 203 199 174 148 191 238 207 176 145 98 64 50 53 41 20 46 93 100 101 106 109 89 70 60 58 57 55 52 48 50 55 59 58 54 57 69
1 354 333 313 327 55 32 30 37 27 37 45 359 341 344 350 357 355 345 7 21 20 9 7 2 339 6 27 7 349 338 326 320 319 318 317 305 271 249 255 248 233 194 42 29 2 316 271 174 217 248 223 202 194 176 167 199 248 248 199 154 132 116 94 67 41 24 37 101 90 93 108 107 92 77 69 67 64 60 57 53 52 54 57 56 51 54 59
Height
1498 1496 1495 1494 1493 1492 1492 1491 1490 1490 1489 1489 1488 1488 1488 1487 1486 1486 1485 1485 1484 1483 1482 1481 1480 1479 1477 1477 1475 1474 1473 1472 1472 1471 1469 1466 1466 1467 1467 1468 1468 1469 1470 1471 1472 1474 1475 1476 1477 1478 1479 1478 1478 1476 1475 1473 1472 1471 1471 1474 1472 1467 1460 1450 1443 1437 1436 1435 1436 1439 1441 1444 1443 1442 1446 1448 1447 1447 1451 1456 1459 1462 1465 1468 1468 1470 1472 1475
1498 1497 1495 1494 1493 1492 1492 1491 1490 1489 1489 1488 1488 1488 1487 1487 1486 1486 1485 1484 1484 1483 1482 1481 1480 1479 1477 1476 1475 1474 1472 1471 1470 1467 1465 1465 1465 1466 1466 1467 1467 1468 1469 1470 1471 1473 1474 1475 1476 1477 1478 1476 1475 1474 1473 1471 1470 1468 1468 1470 1468 1462 1452 1442 1436 1432 1435 1438 1437 1442 1445 1446 1444 1442 1446 1450 1449 1448 1453 1458 1462 1465 1468 1471 1471 1474 1475 1475
1498 1497 1495 1494 1493 1492 1492 1491 1490 1489 1488 1488 1487 1487 1486 1486 1486 1485 1485 1484 1483 1483 1482 1481 1480 1478 1477 1476 1474 1473 1471 1470 1468 1463 1462 1463 1464 1464 1465 1465 1466 1467 1468 1469 1470 1473 1474 1474 1475 1476 1476 1474 1472 1471 1470 1468 1467 1466 1466 1467 1462 1455 1448 1439 1434 1433 1439 1442 1441 1443 1446 1445 1444 1444 1447 1449 1449 1450 1454 1459 1463 1467 1470 1472 1473 1476 1476 1477
1498 1497 1495 1494 1493 1492 1491 1491 1490 1489 1488 1487 1487 1486 1486 1485 1485 1484 1484 1484 1483 1483 1481 1481 1480 1479 1478 1476 1475 1473 1471 1470 1465 1461 1461 1462 1463 1463 1464 1465 1465 1466 1467 1469 1471 1473 1474 1474 1474 1474 1474 1472 1469 1468 1466 1465 1464 1462 1463 1464 1456 1449 1447 1440 1436 1437 1441 1445 1446 1446 1447 1446 1444 1445 1446 1447 1453 1456 1456 1459 1463 1467 1470 1473 1474 1476 1478 1479
1497 1496 1495 1494 1493 1492 1491 1490 1489 1488 1488 1487 1486 1485 1485 1484 1484 1483 1483 1483 1483 1482 1481 1481 1479 1479 1477 1476 1475 1473 1473 1470 1463 1461 1461 1461 1462 1463 1464 1464 1465 1465 1467 1468 1470 1473 1473 1473 1473 1472 1472 1469 1467 1466 1463 1461 1461 1460 1459 1458 1453 1448 1446 1440 1437 1441 1442 1445 1448 1448 1449 1446 1445 1447 1446 1447 1454 1456 1456 1459 1464 1468 1471 1472 1475 1477 1479 1480
1497 1496 1495 1494 1493 1492 1491 1490 1489 1488 1487 1486 1486 1485 1484 1483 1483 1482 1482 1482 1482 1481 1481 1480 1479 1478 1477 1476 1475 1473 1474 1468 1461 1462 1462 1462 1463 1463 1463 1464 1464 1465 1466 1468 1469 1471 1471 1471 1471 1469 1469 1467 1465 1462 1460 1458 1458 1459 1457 1453 1451 1449 1446 1442 1440 1444 1445 1448 1450 1451 1449 1446 1447 1449 1446 1446 1449 1452 1455 1460 1465 1469 1471 1473 1474 1477 1479 1480
1497 1496 1495 1494 1493 1492 1490 1489 1488 1487 1486 1486 1485 1484 1483 1483 1482 1481 1481 1481 1481 1480 1480 1480 1479 1478 1477 1476 1474 1473 1472 1465 1460 1462 1462 1462 1463 1463 1463 1463 1464 1465 1466 1468 1469 1469 1469 1469 1468 1467 1466 1466 1464 1460 1457 1455 1455 1457 1456 1451 1449 1447 1446 1445 1444 1445 1449 1452 1452 1451 1448 1447 1450 1450 1447 1446 1447 1451 1457 1462 1466 1469 1472 1473 1475 1477 1479 1480
1496 1495 1494 1493 1492 1491 1490 1489 1488 1487 1486 1485 1484 1484 1483 1482 1481 1480 1480 1480 1480 1479 1479 1479 1478 1477 1476 1476 1474 1473 1469 1463 1460 1461 1461 1462 1463 1463 1463 1463 1464 1465 1465 1467 1468 1468 1468 1467 1466 1465 1464 1463 1462 1459 1456 1454 1453 1453 1453 1450 1448 1446 1444 1444 1445 1447 1450 1452 1452 1451 1449 1449 1451 1449 1447 1446 1447 1452 1459 1463 1466 1469 1472 1474 1475 1477 1478 1480
1496 1495 1494 1493 1491 1490 1489 1488 1487 1486 1485 1485 1484 1483 1482 1481 1480 1479 1479 1478 1478 1478 1478 1478 1477 1477 1476 1475 1475 1473 1466 1461 1460 1461 1461 1462 1462 1463 1463 1463 1464 1464 1465 1466 1467 1467 1467 1466 1465 1464 1463 1461 1460 1457 1455 1454 1452 1450 1450 1449 1447 1445 1443 1443 1445 1447 1449 1450 1451 1452 1451 1451 1451 1450 1448 1446 1447 1452 1458 1462 1464 1468 1471 1472 1474 1476 1478 1479
1495 1494 1493 1492 1491 1490 1489 1488 1487 1486 1485 1484 1483 1482 1481 1480 1479 1478 1478 1477 1477 1477 1477 1477 1476 1476 1476 1474 1475 1471 1463 1461 1461 1460 1461 1461 1462 1463 1463 1463 1464 1464 1465 1466 1466 1466 1465 1465 1464 1464 1462 1460 1458 1455 1453 1452 1450 1447 1446 1445 1445 1444 1443 1443 1445 1446 1448 1449 1449 1451 1452 1451 1451 1451 1451 1448 1447 1451 1457 1460 1463 1467 1469 1471 1473 1475 1476 1478
1494 1493 1492 1491 1490 1489 1488 1487 1486 1485 1484 1483 1482 1481 1480 1479 1478 1477 1477 1476 1476 1476 1476 1476 1475 1475 1475 1474 1474 1467 1462 1462 1461 1460 1460 1460 1461 1462 1462 1463 1464 1464 1465 1465 1465 1465 1464 1464 1463 1463 1461 1459 1457 1455 1452 1450 1449 1446 1444 1444 1444 1444 1443 1443 1444 1446 1448 1447 1448 1449 1450 1449 1449 1450 1450 1447 1446 1450 1455 1458 1462 1466 1467 1470 1472 1474 1475 1476
1493 1492 1491 1490 1489 1488 1487 1486 1485 1484 1483 1482 1481 1480 1479 1478 1477 1477 1476 1475 1475 1475 1475 1475 1475 1474 1473 1473 1469 1462 1460 1462 1462 1461 1460 1460 1461 1461 1462 1463 1464 1464 1464 1464 1464 1464 1464 1463 1463 1461 1459 1457 1456 1456 1453 1449 1448 1445 1444 1447 1446 1444 1444 1441 1441 1444 1445 1445 1445 1448 1452 1451 1449 1448 1446 1446 1445 1448 1453 1455 1459 1463 1466 1468 1470 1472 1473 1474
1492 1491 1490 1489 1488 1487 1487 1485 1484 1484 1482 1482 1480 1479 1478 1477 1476 1476 1475 1474 1474 1474 1474 1474 1473 1472 1473 1469 1461 1458 1460 1461 1461 1461 1460 1460 1461 1461 1462 1463 1464 1464 1464 1464 1463 1463 1464 1463 1463 1461 1458 1456 1454 1454 1452 1448 1448 1446 1445 1448 1448 1448 1446 1440 1439 1442 1443 1443 1442 1447 1458 1456 1448 1444 1443 1444 1443 1445 1450 1452 1455 1460 1464 1467 1468 1470 1472 1473
1492 1490 1489 1488 1487 1486 1485 1484 1484 1482 1481 1480 1479 1478 1477 1476 1476 1474 1474 1473 1473 1473 1472 1473 1472 1472 1471 1464 1455 1456 1459 1459 1460 1460 1460 1460 1461 1461 1462 1462 1463 1463 1463 1463 1462 1462 1462 1463 1462 1461 1459 1458 1454 1452 1450 1448 1448 1447 1447 1447 1449 1453 1448 1437 1435 1440 1442 1442 1440 1446 1458 1454 1444 1441 1440 1441 1441 1444 1449 1450 1453 1458 1462 1465 1468 1470 1472 1472
1491 1490 1489 1487 1486 1485 1484 1483 1482 1481 1481 1479 1478 1477 1476 1475 1474 1473 1473 1472 1472 1472 1471 1471 1471 1471 1469 1460 1453 1454 1456 1457 1458 1457 1459 1459 1459 1460 1460 1462 1462 1462 1462 1462 1462 1462 1462 1462 1462 1460 1459 1458 1456 1455 1453 1450 1447 1446 1452 1452 1448 1450 1447 1435 1430 1434 1439 1439 1437 1445 1454 1450 1441 1435 1435 1437 1439 1443 1447 1449 1452 1455 1459 1463 1466 1469 1471 1471
1490 1489 1488 1487 1485 1484 1483 1482 1481 1480 1479 1478 1477 1476 1475 1474 1472 1472 1471 1470 1471 1470 1470 1471 1470 1470 1467 1458 1453 1453 1454 1454 1454 1456 1457 1457 1458 1458 1459 1460 1461 1461 1462 1461 1461 1462 1461 1461 1460 1460 1458 1456 1455 1455 1455 1453 1449 1446 1450 1454 1448 1446 1445 1437 1427 1424 1431 1435 1435 1441 1447 1447 1439 1431 1430 1433 1436 1440 1444 1447 1450 1453 1456 1461 1465 1467 1469 1471
1489 1488 1487 1485 1484 1483 1482 1481 1480 1479 1478 1477 1476 1474 1473 1472 1470 1470 1469 1469 1469 1468 1469 1469 1469 1470 1463 1454 1452 1451 1450 1451 1452 1454 1455 1456 1457 1457 1457 1459 1459 1460 1460 1461 1461 1460 1460 1459 1459 1458 1456 1454 1451 1452 1458 1460 1454 1446 1446 1449 1446 1440 1439 1436 1427 1420 1424 1432 1433 1437 1443 1443 1435 1429 1425 1422 1429 1438 1443 1446 1448 1450 1454 1458 1464 1467 1468 1470
1488 1487 1486 1484 1483 1482 1481 1480 1479 1478 1477 1475 1474 1473 1472 1470 1468 1467 1467 1467 1467 1468 1468 1467 1470 1470 1458 1450 1451 1448 1447 1449 1450 1451 1453 1454 1455 1455 1456 1457 1458 1459 1459 1459 1459 1458 1458 1457 1456 1456 1454 1453 1450 1449 1458 1459 1449 1443 1442 1444 1443 1438 1434 1431 1424 1416 1420 1430 1432 1435 1443 1441 1434 1431 1424 1419 1427 1437 1441 1444 1445 1448 1453 1458 1463 1465 1466 1468
1487 1486 1485 1483 1482 1481 1480 1479 1478 1476 1475 1474 1473 1472 1470 1468 1466 1465 1465 1465 1466 1466 1464 1462 1464 1462 1452 1448 1449 1447 1446 1447 1449 1450 1451 1452 1454 1454 1455 1456 1457 1457 1457 1457 1456 1455 1455 1455 1456 1456 1453 1451 1449 1446 1449 1446 1438 1435 1434 1435 1437 1436 1431 1425 1418 1410 1415 1428 1432 1433 1439 1439 1436 1433 1428 1428 1434 1437 1439 1441 1442 1446 1451 1455 1459 1461 1463 1465
1486 1485 1484 1482 1481 1480 1479 1477 1476 1475 1474 1473 1472 1471 1469 1466 1463 1462 1463 1463 1462 1460 1457 1455 1456 1452 1448 1447 1446 1446 1447 1448 1448 1449 1450 1451 1453 1453 1453 1455 1454 1454 1454 1453 1452 1452 1453 1455 1455 1453 1450 1446 1444 1443 1440 1437 1434 1432 1433 1431 1427 1429 1428 1420 1414 1409 1412 1424 1430 1430 1433 1434 1434 1432 1428 1431 1436 1437 1438 1440 1441 1444 1448 1451 1455 1459 1461 1464
1485 1484 1482 1481 1480 1479 1478 1476 1475 1474 1473 1472 1471 1471 1468 1465 1463 1462 1462 1459 1456 1454 1453 1452 1451 1449 1446 1445 1443 1443 1445 1446 1447 1448 1448 1450 1451 1451 1451 1452 1452 1452 1452 1449 1449 1449 1451 1454 1451 1446 1443 1440 1439 1439 1438 1438 1436 1435 1437 1432 1423 1423 1424 1416 1411 1409 1411 1422 1427 1427 1431 1432 1431 1430 1427 1427 1433 1436 1437 1439 1441 1443 1445 1448 1452 1456 1459 1464
1484 1483 1481 1480 1479 1478 1477 1475 1474 1473 1472 1471 1470 1469 1467 1466 1466 1464 1462 1457 1451 1450 1449 1447 1447 1446 1444 1443 1442 1442 1443 1443 1445 1446 1446 1448 1450 1448 1446 1448 1449 1448 1448 1446 1446 1449 1452 1451 1446 1440 1438 1437 1436 1435 1437 1438 1438 1439 1439 1435 1427 1421 1419 1415 1410 1407 1413 1424 1427 1427 1433 1434 1429 1426 1425 1425 1428 1432 1435 1439 1441 1441 1443 1447 1451 1454 1458 1464
1483 1481 1480 1479 1477 1477 1475 1474 1473 1471 1471 1470 1469 1468 1466 1465 1466 1465 1463 1457 1449 1445 1444 1442 1441 1440 1440 1441 1441 1441 1441 1440 1441 1442 1443 1446 1446 1445 1444 1445 1446 1444 1444 1445 1444 1448 1452 1446 1439 1436 1435 1435 1436 1436 1438 1439 1440 1441 1440 1438 1433 1423 1419 1420 1418 1414 1419 1427 1429 1429 1433 1433 1429 1426 1425 1424 1424 1429 1435 1438 1439 1440 1443 1446 1450 1454 1458 1464
1481 1480 1479 1477 1477 1476 1474 1473 1472 1470 1469 1468 1467 1466 1465 1466 1466 1465 1463 1457 1448 1439 1436 1436 1435 1434 1434 1435 1437 1439 1439 1439 1437 1437 1440 1443 1443 1443 1442 1441 1442 1442 1440 1440 1440 1442 1442 1434 1431 1433 1432 1433 1437 1439 1441 1443 1443 1441 1439 1439 1434 1426 1421 1421 1422 1422 1424 1429 1430 1434 1441 1437 1429 1430 1429 1423 1423 1429 1434 1437 1438 1439 1442 1447 1453 1457 1460 1465
1479 1479 1478 1476 1476 1474 1473 1472 1470 1470 1469 1467 1466 1465 1465 1466 1466 1465 1463 1458 1448 1434 1427 1430 1430 1428 1429 1431 1434 1435 1436 1437 1435 1433 1436 1440 1440 1440 1439 1438 1439 1439 1436 1436 1437 1437 1433 1428 1427 1429 1429 1432 1439 1441 1441 1444 1446 1442 1437 1436 1433 1429 1424 1420 1422 1425 1433 1439 1432 1437 1455 1448 1430 1430 1430 1423 1427 1433 1434 1435 1437 1439 1442 1447 1453 1458 1462 1468
1478 1477 1476 1476 1475 1473 1473 1471 1469 1470 1468 1467 1466 1465 1466 1466 1465 1466 1463 1459 1449 1430 1423 1426 1425 1424 1425 1427 1430 1433 1436 1434 1432 1432 1433 1436 1438 1437 1437 1436 1434 1435 1432 1430 1432 1433 1429 1426 1427 1428 1429 1435 1440 1440 1438 1439 1446 1445 1434 1431 1432 1431 1429 1425 1425 1429 1440 1446 1434 1434 1453 1453 1437 1430 1426 1424 1431 1434 1434 1436 1437 1438 1441 1446 1454 1460 1465 1471
1476 1475 1475 1474 1473 1472 1471 1469 1470 1468 1466 1467 1466 1466 1468 1465 1465 1465 1463 1464 1450 1425 1421 1424 1422 1423 1423 1424 1428 1433 1435 1430 1429 1430 1430 1434 1436 1435 1435 1433 1431 1432 1428 1427 1433 1432 1427 1428 1430 1429 1432 1437 1439 1439 1436 1435 1443 1443 1429 1426 1429 1429 1431 1430 1428 1430 1433 1437 1436 1432 1440 1449 1443 1428 1421 1424 1431 1434 1435 1438 1438 1438 1442 1448 1456 1463 1468 1473
1475 1473 1473 1473 1472 1472 1470 1469 1469 1466 1465 1467 1466 1467 1467 1464 1466 1463 1466 1471 1445 1415 1417 1422 1421 1423 1423 1424 1427 1429 1427 1423 1426 1428 1427 1432 1434 1433 1434 1430 1429 1429 1424 1429 1436 1429 1424 1428 1431 1431 1434 1436 1436 1434 1431 1431 1437 1435 1426 1422 1422 1424 1428 1428 1428 1431 1430 1437 1446 1437 1433 1448 1446 1426 1421 1425 1428 1434 1436 1438 1440 1440 1446 1454 1460 1465 1470 1472
1473 1472 1471 1471 1471 1471 1469 1468 1467 1464 1464 1464 1465 1467 1464 1465 1466 1461 1469 1470 1436 1411 1416 1419 1421 1424 1422 1423 1426 1426 1423 1419 1421 1423 1425 1431 1431 1431 1432 1429 1427 1426 1423 1427 1431 1426 1422 1425 1426 1429 1433 1433 1430 1428 1426 1428 1432 1428 1425 1424 1421 1422 1424 1426 1430 1430 1434 1446 1454 1441 1433 1449 1449 1428 1425 1428 1428 1433 1434 1435 1439 1442 1450 1459 1462 1467 1469 1468
1472 1470 1469 1468 1469 1469 1468 1466 1464 1464 1463 1464 1465 1465 1463 1466 1464 1465 1474 1462 1429 1414 1416 1417 1420 1420 1420 1422 1424 1424 1422 1418 1417 1420 1423 1428 1430 1430 1429 1428 1427 1425 1423 1424 1427 1425 1420 1421 1422 1424 1428 1428 1425 1423 1421 1423 1425 1424 1425 1427 1427 1425 1422 1426 1427 1428 1444 1456 1451 1438 1433 1448 1453 1433 1424 1428 1426 1428 1432 1434 1438 1442 1450 1458 1461 1464 1465 1465
1470 1469 1467 1466 1467 1467 1467 1465 1464 1464 1464 1464 1464 1463 1465 1464 1461 1468 1467 1444 1423 1415 1411 1415 1417 1414 1418 1421 1421 1421 1420 1417 1415 1418 1423 1425 1427 1430 1429 1428 1427 1428 1428 1426 1426 1425 1421 1424 1425 1422 1423 1423 1422 1422 1419 1417 1419 1423 1427 1428 1432 1432 1428 1432 1431 1435 1455 1459 1445 1433 1427 1441 1455 1440 1426 1428 1425 1425 1431 1436 1439 1442 1449 1455 1458 1459 1461 1464
1469 1467 1465 1465 1465 1465 1464 1464 1463 1463 1463 1463 1463 1463 1465 1464 1462 1463 1451 1433 1425 1415 1407 1412 1411 1410 1415 1417 1417 1418 1417 1416 1414 1416 1421 1422 1425 1427 1427 1427 1428 1435 1438 1430 1427 1426 1423 1422 1422 1423 1423 1420 1422 1425 1423 1420 1420 1423 1427 1431 1440 1444 1446 1450 1448 1447 1454 1449 1436 1428 1426 1438 1447 1436 1429 1430 1428 1428 1431 1435 1440 1442 1448 1454 1456 1458 1460 1463
1467 1465 1463 1463 1462 1462 1462 1462 1462 1463 1462 1462 1464 1462 1462 1465 1462 1451 1441 1433 1423 1409 1406 1411 1408 1408 1413 1414 1415 1414 1414 1415 1412 1415 1418 1419 1423 1424 1424 1423 1422 1431 1434 1429 1428 1429 1429 1424 1419 1422 1423 1419 1422 1426 1427 1426 1424 1425 1426 1431 1441 1450 1460 1465 1456 1451 1452 1442 1428 1421 1428 1444 1447 1435 1431 1432 1432 1433 1434 1437 1442 1443 1447 1453 1455 1458 1460 1462
1465 1463 1462 1460 1460 1459 1460 1460 1460 1462 1462 1463 1463 1461 1462 1465 1455 1441 1436 1431 1418 1408 1409 1410 1409 1410 1411 1412 1412 1410 1414 1414 1410 1414 1416 1417 1423 1423 1422 1421 1418 1422 1425 1427 1428 1427 1434 1433 1421 1420 1420 1419 1421 1421 1421 1420 1420 1424 1421 1424 1433 1439 1452 1461 1455 1453 1452 1441 1430 1426 1433 1447 1453 1444 1434 1433 1435 1437 1440 1444 1446 1447 1449 1452 1455 1458 1461 1463
1463 1461 1460 1459 1458 1458 1458 1459 1460 1460 1462 1462 1461 1460 1461 1460 1449 1438 1432 1424 1416 1412 1409 1407 1409 1413 1412 1410 1409 1406 1410 1412 1409 1412 1414 1415 1419 1419 1419 1419 1417 1417 1421 1430 1428 1422 1429 1427 1414 1413 1414 1415 1419 1418 1415 1416 1420 1420 1416 1422 1430 1428 1435 1448 1449 1446 1448 1447 1442 1438 1439 1439 1443 1442 1434 1434 1439 1439 1444 1448 1450 1453 1454 1454 1458 1460 1462 1464
1461 1460 1459 1458 1457 1457 1457 1459 1459 1460 1461 1461 1460 1458 1454 1448 1440 1434 1426 1417 1415 1411 1408 1408 1409 1414 1416 1412 1409 1406 1407 1412 1411 1412 1414 1413 1413 1413 1413 1413 1414 1414 1416 1423 1424 1422 1428 1422 1407 1408 1412 1410 1414 1415 1413 1417 1426 1425 1422 1423 1421 1417 1425 1442 1449 1441 1444 1457 1450 1442 1447 1444 1442 1444 1436 1435 1441 1444 1450 1453 1454 1458 1459 1459 1461 1462 1464 1466
1460 1459 1459 1458 1458 1458 1459 1460 1460 1461 1461 1460 1459 1454 1446 1439 1433 1427 1421 1415 1412 1407 1409 1414 1410 1411 1417 1415 1411 1408 1408 1412 1413 1414 1417 1415 1411 1410 1408 1407 1408 1410 1411 1415 1417 1418 1425 1424 1412 1409 1413 1410 1408 1412 1411 1410 1418 1427 1428 1421 1414 1417 1422 1432 1449 1453 1455 1462 1447 1437 1449 1451 1448 1447 1438 1436 1443 1449 1455 1457 1459 1462 1463 1464 1465 1466 1469 1471
1459 1459 1459 1458 1458 1459 1459 1460 1460 1460 1460 1458 1456 1451 1443 1436 1430 1425 1420 1417 1413 1408 1411 1419 1413 1407 1412 1414 1411 1407 1406 1411 1414 1417 1420 1419 1416 1413 1410 1409 1407 1406 1406 1410 1416 1415 1420 1430 1423 1411 1411 1408 1405 1412 1415 1410 1409 1415 1420 1416 1422 1440 1440 1432 1445 1459 1465 1466 1451 1438 1439 1441 1441 1441 1437 1440 1447 1451 1455 1457 1459 1462 1464 1466 1468 1468 1470 1471
1458 1458 1458 1457 1457 1458 1458 1459 1459 1459 1459 1457 1454 1449 1442 1435 1429 1424 1421 1418 1415 1413 1415 1419 1415 1409 1409 1410 1409 1406 1405 1411 1418 1423 1422 1422 1423 1419 1415 1417 1416 1410 1405 1406 1414 1415 1419 1433 1433 1416 1408 1408 1409 1415 1420 1417 1411 1410 1414 1415 1421 1436 1439 1434 1439 1446 1452 1460 1456 1443 1437 1440 1445 1440 1434 1440 1446 1450 1455 1457 1458 1460 1461 1463 1465 1466 1466 1465
1459 1457 1456 1456 1456 1456 1455 1457 1458 1457 1456 1452 1449 1443 1437 1433 1428 1425 1423 1419 1416 1415 1417 1417 1415 1412 1409 1406 1405 1404 1405 1412 1423 1430 1426 1419 1422 1422 1419 1421 1421 1415 1408 1405 1409 1413 1419 1433 1437 1422 1411 1413 1417 1418 1419 1419 1416 1415 1420 1422 1422 1425 1427 1432 1438 1435 1437 1448 1452 1449 1448 1451 1450 1440 1430 1435 1444 1448 1453 1457 1460 1462 1462 1464 1466 1466 1466 1467
1459 1456 1454 1455 1455 1454 1454 1456 1455 1453 1451 1447 1444 1439 1434 1430 1426 1422 1421 1419 1417 1418 1419 1419 1418 1415 1412 1408 1406 1406 1407 1410 1418 1430 1430 1423 1425 1426 1422 1423 1422 1419 1418 1414 1409 1412 1419 1429 1435 1430 1423 1423 1422 1415 1413 1415 1415 1415 1418 1419 1422 1425 1429 1440 1444 1434 1432 1439 1442 1449 1459 1458 1448 1439 1435 1437 1443 1447 1451 1456 1460 1463 1466 1468 1470 1471 1470 1471
1458 1456 1453 1454 1454 1453 1454 1454 1452 1449 1447 1443 1439 1436 1432 1429 1426 1422 1418 1418 1419 1420 1421 1421 1419 1417 1416 1412 1409 1409 1410 1409 1414 1425 1430 1430 1433 1430 1422 1421 1421 1421 1427 1423 1414 1413 1418 1423 1431 1432 1429 1426 1420 1414 1414 1415 1412 1411 1413 1414 1418 1420 1424 1439 1450 1446 1442 1439 1434 1440 1456 1458 1447 1442 1442 1443 1444 1448 1453 1457 1459 1463 1466 1468 1470 1473 1473 1474
1456 1454 1453 1454 1453 1453 1454 1453 1450 1448 1446 1442 1437 1433 1430 1427 1425 1422 1421 1423 1425 1425 1425 1423 1419 1418 1417 1414 1414 1414 1413 1412 1414 1419 1424 1427 1430 1427 1419 1420 1422 1423 1429 1427 1419 1418 1419 1422 1431 1435 1431 1428 1423 1419 1417 1417 1416 1416 1416 1416 1419 1419 1418 1428 1440 1445 1447 1445 1440 1447 1460 1459 1450 1445 1446 1448 1450 1453 1457 1460 1462 1464 1465 1467 1471 1473 1474 1476
1455 1453 1453 1454 1453 1454 1454 1452 1452 1452 1449 1445 1441 1435 1431 1428 1426 1425 1426 1428 1428 1427 1427 1425 1419 1416 1416 1415 1417 1416 1415 1416 1415 1415 1421 1424 1422 1421 1420 1420 1422 1426 1431 1430 1425 1424 1424 1426 1433 1440 1443 1444 1443 1438 1430 1428 1430 1430 1428 1423 1420 1417 1419 1427 1434 1439 1446 1444 1440 1453 1467 1461 1450 1447 1450 1453 1457 1460 1462 1465 1467 1468 1468 1469 1471 1473 1475 1477
1455 1453 1452 1453 1453 1454 1452 1451 1453 1452 1450 1450 1447 1439 1434 1432 1430 1429 1429 1429 1430 1428 1427 1425 1419 1415 1416 1417 1417 1414 1413 1418 1417 1414 1422 1425 1420 1419 1421 1420 1422 1428 1431 1430 1425 1424 1427 1430 1434 1443 1451 1454 1459 1458 1449 1442 1440 1437 1434 1432 1427 1422 1423 1431 1438 1445 1451 1446 1440 1454 1467 1459 1448 1451 1458 1460 1461 1464 1465 1467 1469 1470 1471 1471 1471 1473 1476 1477
1455 1452 1451 1452 1453 1454 1452 1451 1451 1450 1450 1453 1451 1442 1437 1435 1433 1432 1431 1430 1431 1430 1429 1427 1423 1422 1422 1421 1420 1419 1415 1416 1416 1415 1420 1426 1424 1422 1421 1420 1421 1426 1429 1430 1427 1425 1428 1432 1433 1439 1444 1443 1448 1453 1448 1443 1444 1444 1442 1439 1437 1434 1427 1427 1437 1447 1449 1449 1452 1457 1459 1457 1455 1459 1466 1467 1467 1470 1470 1470 1473 1474 1474 1474 1473 1474 1476 1477
1454 1453 1455 1455 1455 1454 1453 1452 1452 1451 1451 1453 1453 1448 1443 1438 1434 1433 1434 1433 1432 1432 1431 1429 1427 1428 1428 1427 1427 1427 1422 1417 1416 1415 1417 1423 1426 1424 1421 1418 1419 1423 1427 1429 1429 1429 1433 1435 1433 1435 1438 1434 1434 1439 1441 1442 1444 1446 1448 1446 1444 1444 1438 1432 1436 1441 1440 1449 1462 1460 1454 1462 1468 1466 1468 1470 1472 1475 1475 1475 1477 1479 1479 1480 1479 1480 1479 1478
1455 1456 1458 1458 1458 1458 1458 1458 1456 1454 1452 1452 1453 1452 1450 1447 1441 1436 1435 1434 1432 1433 1435 1434 1431 1429 1427 1427 1428 1428 1427 1425 1422 1418 1418 1422 1426 1425 1421 1419 1420 1423 1426 1426 1425 1428 1434 1436 1433 1434 1436 1434 1433 1437 1440 1443 1445 1446 1448 1451 1451 1449 1450 1449 1446 1442 1438 1446 1460 1460 1458 1467 1472 1468 1468 1469 1471 1475 1477 1477 1479 1481 1482 1483 1483 1483 1483 1482
1458 1458 1459 1459 1460 1462 1462 1462 1461 1457 1454 1453 1453 1453 1455 1454 1446 1439 1436 1437 1438 1437 1438 1440 1436 1430 1427 1427 1427 1428 1431 1433 1432 1430 1427 1428 1430 1428 1427 1429 1429 1425 1424 1425 1425 1425 1431 1437 1436 1435 1436 1435 1436 1439 1440 1442 1446 1447 1448 1453 1455 1454 1455 1457 1457 1455 1451 1451 1454 1457 1462 1468 1470 1469 1469 1470 1471 1474 1476 1479 1482 1482 1483 1484 1484 1485 1486 1486
1462 1462 1462 1460 1459 1461 1461 1461 1462 1460 1457 1456 1456 1456 1457 1454 1447 1442 1439 1441 1443 1441 1440 1442 1439 1433 1432 1433 1432 1434 1436 1435 1436 1437 1433 1431 1432 1432 1433 1435 1434 1429 1425 1427 1430 1429 1434 1441 1440 1438 1441 1440 1438 1440 1443 1445 1446 1449 1451 1453 1456 1459 1461 1462 1464 1466 1466 1464 1461 1460 1465 1471 1471 1469 1471 1473 1473 1474 1476 1480 1483 1484 1485 1486 1486 1489 1490 1490
1465 1464 1464 1461 1459 1459 1460 1460 1461 1460 1460 1461 1462 1461 1458 1455 1451 1449 1445 1442 1443 1443 1441 1442 1440 1436 1436 1438 1439 1440 1439 1436 1436 1436 1433 1431 1432 1434 1433 1431 1432 1434 1432 1432 1437 1439 1442 1444 1442 1443 1447 1445 1440 1440 1444 1448 1450 1453 1455 1455 1457 1462 1465 1466 1468 1470 1470 1472 1472 1469 1470 1473 1472 1471 1474 1477 1478 1479 1482 1484 1486 1488 1489 1489 1490 1492 1493 1493
1466 1465 1465 1463 1460 1458 1460 1460 1460 1460 1464 1466 1466 1464 1461 1458 1455 1454 1452 1448 1446 1446 1445 1443 1442 1440 1440 1442 1443 1443 1441 1439 1438 1436 1434 1433 1431 1431 1431 1429 1429 1432 1435 1439 1444 1449 1449 1446 1443 1447 1450 1446 1441 1442 1445 1451 1458 1461 1458 1455 1457 1461 1464 1467 1470 1471 1467 1468 1472 1475 1475 1474 1473 1474 1478 1481 1483 1485 1488 1490 1492 1493 1493 1494 1495 1496 1496 1494